�������l�o���
Date,Time,MP-1(��Sv/h),MP-2(��Sv/h),MP-3(��Sv/h),MP-4(��Sv/h),MP-5(��Sv/h),MP-6(��Sv/h),MP-7(��Sv/h),MP-8(��Sv/h),����,����(m/s),���J
2018/06/22,00:00,0.858,1.206,0.839,1.508,1.049,0.472,0.820,0.783,���k��,11.9,��
2018/06/22,00:10,0.861,1.202,0.838,1.509,1.051,0.473,0.818,0.781,���k��,8.0,��
2018/06/22,00:20,0.860,1.204,0.840,1.508,1.047,0.473,0.821,0.782,���k��,6.3,��
2018/06/22,00:30,0.862,1.206,0.839,1.512,1.050,0.473,0.820,0.781,���k��,7.4,��
2018/06/22,00:40,0.860,1.206,0.841,1.510,1.050,0.473,0.820,0.784,���k��,9.0,��
2018/06/22,00:50,0.860,1.205,0.836,1.510,1.049,0.473,0.819,0.782,��,8.4,��
2018/06/22,01:00,0.858,1.205,0.841,1.512,1.051,0.474,0.818,0.782,��,8.8,��
2018/06/22,01:10,0.861,1.203,0.839,1.511,1.049,0.473,0.819,0.783,���k��,6.6,��
2018/06/22,01:20,0.860,1.205,0.840,1.510,1.050,0.473,0.818,0.782,���k��,9.8,��
2018/06/22,01:30,0.858,1.207,0.840,1.513,1.050,0.472,0.816,0.783,���k��,9.6,��
2018/06/22,01:40,0.860,1.206,0.841,1.511,1.050,0.471,0.817,0.783,��,9.2,��
2018/06/22,01:50,0.859,1.206,0.840,1.513,1.051,0.472,0.817,0.783,���k��,11.3,��
2018/06/22,02:00,0.861,1.205,0.842,1.514,1.049,0.471,0.816,0.783,���k��,12.0,��
2018/06/22,02:10,0.861,1.207,0.838,1.515,1.051,0.472,0.815,0.784,���k��,11.1,��
2018/06/22,02:20,0.859,1.208,0.839,1.514,1.050,0.471,0.815,0.781,���k��,11.6,��
2018/06/22,02:30,0.860,1.204,0.838,1.513,1.051,0.470,0.818,0.784,���k��,10.9,��
2018/06/22,02:40,0.860,1.208,0.839,1.514,1.052,0.473,0.818,0.782,���k��,13.8,��
2018/06/22,02:50,0.859,1.205,0.840,1.515,1.053,0.471,0.817,0.783,���k��,13.5,��
2018/06/22,03:00,0.859,1.208,0.841,1.516,1.051,0.471,0.817,0.784,���k��,12.5,��
2018/06/22,03:10,0.861,1.208,0.840,1.516,1.052,0.471,0.819,0.783,���k��,13.8,��
2018/06/22,03:20,0.860,1.207,0.842,1.515,1.051,0.471,0.816,0.783,���k��,14.1,��
2018/06/22,03:30,0.860,1.208,0.840,1.515,1.050,0.471,0.817,0.783,���k��,13.9,��
2018/06/22,03:40,0.860,1.207,0.841,1.516,1.050,0.471,0.818,0.780,���k��,14.4,��
2018/06/22,03:50,0.860,1.207,0.839,1.515,1.050,0.472,0.817,0.781,���k��,13.8,��
2018/06/22,04:00,0.861,1.209,0.841,1.515,1.053,0.472,0.816,0.783,���k��,13.0,��
2018/06/22,04:10,0.860,1.208,0.841,1.518,1.055,0.472,0.817,0.783,���k��,16.9,��
2018/06/22,04:20,0.860,1.210,0.841,1.519,1.053,0.469,0.817,0.785,���k��,15.2,��
2018/06/22,04:30,0.859,1.210,0.841,1.517,1.052,0.472,0.818,0.784,���k��,14.1,��
2018/06/22,04:40,0.859,1.210,0.840,1.517,1.053,0.470,0.819,0.785,��,13.6,��
2018/06/22,04:50,0.860,1.211,0.839,1.518,1.052,0.471,0.818,0.784,��,11.7,��
2018/06/22,05:00,0.860,1.209,0.840,1.515,1.052,0.471,0.817,0.783,��,14.1,��
2018/06/22,05:10,0.860,1.209,0.841,1.521,1.053,0.472,0.819,0.782,���k��,13.3,��
2018/06/22,05:20,0.860,1.211,0.842,1.520,1.052,0.472,0.818,0.782,��,12.4,��
2018/06/22,05:30,0.861,1.212,0.841,1.519,1.052,0.470,0.820,0.782,��,13.6,��
2018/06/22,05:40,0.860,1.211,0.843,1.520,1.054,0.472,0.817,0.782,��,11.3,��
2018/06/22,05:50,0.860,1.208,0.842,1.521,1.051,0.471,0.817,0.783,���k��,9.7,��
2018/06/22,06:00,0.861,1.208,0.840,1.521,1.052,0.472,0.820,0.784,���k��,9.6,��
2018/06/22,06:10,0.860,1.209,0.840,1.525,1.053,0.470,0.817,0.783,���k��,12.2,��
2018/06/22,06:20,0.861,1.209,0.840,1.522,1.053,0.473,0.819,0.784,���k��,10.2,��
2018/06/22,06:30,0.861,1.211,0.839,1.522,1.052,0.473,0.818,0.786,���k��,8.9,��
2018/06/22,06:40,0.860,1.208,0.841,1.524,1.054,0.473,0.818,0.784,���k��,9.6,��
2018/06/22,06:50,0.859,1.208,0.841,1.523,1.053,0.472,0.819,0.784,���k��,11.4,��
2018/06/22,07:00,0.861,1.210,0.841,1.524,1.051,0.470,0.818,0.785,���k��,11.0,��
2018/06/22,07:10,0.859,1.211,0.842,1.526,1.051,0.471,0.819,0.784,���k��,11.3,��
2018/06/22,07:20,0.860,1.211,0.840,1.526,1.052,0.473,0.820,0.785,���k��,12.0,��
2018/06/22,07:30,0.861,1.209,0.843,1.524,1.051,0.470,0.820,0.785,��,9.5,��
2018/06/22,07:40,0.861,1.212,0.843,1.527,1.055,0.472,0.820,0.784,���k��,11.3,��
2018/06/22,07:50,0.861,1.215,0.842,1.527,1.056,0.471,0.820,0.781,��,8.7,��
2018/06/22,08:00,0.857,1.213,0.842,1.526,1.053,0.471,0.820,0.781,��,9.3,��
2018/06/22,08:10,0.860,1.214,0.842,1.526,1.058,0.470,0.824,0.781,��,10.5,��
2018/06/22,08:20,0.859,1.213,0.843,1.529,1.056,0.472,0.822,0.783,��,10.2,��
2018/06/22,08:30,0.864,1.215,0.843,1.529,1.055,0.473,0.821,0.780,��,7.4,��
2018/06/22,08:40,0.865,1.216,0.842,1.528,1.057,0.473,0.821,0.783,���k��,5.0,��
2018/06/22,08:50,0.865,1.218,0.843,1.530,1.055,0.473,0.822,0.784,���k��,5.4,��
2018/06/22,09:00,0.868,1.219,0.842,1.529,1.055,0.472,0.821,0.782,��,4.5,��
2018/06/22,09:10,0.865,1.218,0.845,1.527,1.056,0.475,0.822,0.783,��,6.6,��
2018/06/22,09:20,0.868,1.218,0.844,1.530,1.058,0.475,0.823,0.783,���k��,7.0,��
2018/06/22,09:30,0.868,1.221,0.843,1.531,1.058,0.474,0.821,0.785,���k��,6.9,��
2018/06/22,09:40,0.869,1.219,0.844,1.530,1.059,0.474,0.823,0.785,���k��,6.4,��
2018/06/22,09:50,0.869,1.218,0.846,1.533,1.059,0.474,0.822,0.783,��,5.6,��
2018/06/22,10:00,0.870,1.221,0.842,1.534,1.057,0.475,0.822,0.784,��,7.4,��
2018/06/22,10:10,0.870,1.222,0.845,1.534,1.059,0.474,0.825,0.784,��,6.3,��
2018/06/22,10:20,0.872,1.221,0.844,1.536,1.060,0.475,0.823,0.786,��,6.5,��
2018/06/22,10:30,0.873,1.219,0.846,1.537,1.062,0.475,0.824,0.785,���k��,6.4,��
2018/06/22,10:40,0.872,1.223,0.847,1.536,1.063,0.475,0.822,0.784,���k��,7.2,��
2018/06/22,10:50,0.874,1.224,0.846,1.536,1.061,0.476,0.824,0.785,��,8.1,��
2018/06/22,11:00,0.873,1.225,0.848,1.537,1.064,0.476,0.825,0.784,��,9.3,��
2018/06/22,11:10,0.874,1.225,0.846,1.539,1.063,0.477,0.823,0.785,���k��,8.0,��
2018/06/22,11:20,0.875,1.225,0.848,1.535,1.062,0.473,0.826,0.784,���k��,8.6,��
2018/06/22,11:30,0.872,1.225,0.847,1.537,1.063,0.476,0.826,0.787,��,8.9,��
2018/06/22,11:40,0.875,1.227,0.849,1.538,1.066,0.475,0.825,0.786,���k��,7.4,��
2018/06/22,11:50,0.875,1.229,0.849,1.538,1.068,0.475,0.826,0.787,���k��,5.5,��
2018/06/22,12:00,0.873,1.229,0.851,1.536,1.068,0.475,0.824,0.787,���k��,8.4,��
2018/06/22,12:10,0.873,1.228,0.851,1.539,1.069,0.477,0.827,0.786,���k��,7.6,��
2018/06/22,12:20,0.874,1.226,0.852,1.539,1.071,0.476,0.826,0.787,���k��,7.4,��
2018/06/22,12:30,0.875,1.231,0.849,1.541,1.069,0.478,0.827,0.787,���k��,6.9,��
2018/06/22,12:40,0.874,1.231,0.852,1.541,1.070,0.477,0.827,0.787,���k��,7.5,��
2018/06/22,12:50,0.876,1.232,0.851,1.541,1.069,0.477,0.826,0.788,���k��,7.9,��
2018/06/22,13:00,0.879,1.230,0.853,1.541,1.072,0.476,0.827,0.786,���쐼,5.7,��
2018/06/22,13:10,0.876,1.231,0.850,1.542,1.071,0.475,0.828,0.788,��,5.3,��
2018/06/22,13:20,0.878,1.232,0.853,1.542,1.073,0.477,0.828,0.787,��,9.1,��
2018/06/22,13:30,0.879,1.233,0.855,1.545,1.071,0.477,0.830,0.787,��,6.1,��
2018/06/22,13:40,0.878,1.235,0.852,1.545,1.074,0.476,0.828,0.787,���쐼,5.8,��
2018/06/22,13:50,0.880,1.234,0.853,1.544,1.073,0.477,0.828,0.787,���쐼,5.9,��
2018/06/22,14:00,0.880,1.234,0.854,1.546,1.074,0.479,0.827,0.788,��,6.6,��
2018/06/22,14:10,0.877,1.237,0.851,1.544,1.075,0.476,0.825,0.785,��,7.8,��
2018/06/22,14:20,0.878,1.235,0.851,1.545,1.075,0.475,0.825,0.787,��쓌,8.9,��
2018/06/22,14:30,0.879,1.235,0.851,1.543,1.075,0.477,0.826,0.786,��,8.4,��
2018/06/22,14:40,0.877,1.235,0.852,1.546,1.074,0.476,0.827,0.787,��,9.3,��
2018/06/22,14:50,0.879,1.235,0.853,1.545,1.075,0.478,0.826,0.785,��,8.8,��
2018/06/22,15:00,0.880,1.237,0.853,1.543,1.072,0.475,0.825,0.787,��,8.0,��
2018/06/22,15:10,0.881,1.237,0.852,1.548,1.076,0.477,0.827,0.789,��,7.5,��
2018/06/22,15:20,0.879,1.235,0.855,1.546,1.076,0.474,0.827,0.786,��,8.6,��
2018/06/22,15:30,0.881,1.238,0.851,1.546,1.075,0.476,0.828,0.787,��,9.1,��
2018/06/22,15:40,0.878,1.238,0.853,1.546,1.075,0.475,0.826,0.788,��,9.4,��
2018/06/22,15:50,0.878,1.237,0.855,1.547,1.075,0.475,0.826,0.787,��쓌,8.7,��
2018/06/22,16:00,0.878,1.239,0.852,1.546,1.075,0.475,0.826,0.785,��쓌,10.2,��
2018/06/22,16:10,0.880,1.237,0.853,1.546,1.076,0.475,0.827,0.786,��쓌,9.7,��
2018/06/22,16:20,0.878,1.239,0.853,1.548,1.077,0.476,0.825,0.786,��,10.2,��
2018/06/22,16:30,0.880,1.240,0.855,1.544,1.074,0.476,0.825,0.787,��쓌,9.8,��
2018/06/22,16:40,0.878,1.240,0.854,1.547,1.077,0.475,0.825,0.786,��,9.2,��
2018/06/22,16:50,0.878,1.239,0.853,1.546,1.075,0.478,0.826,0.787,��,8.5,��
2018/06/22,17:00,0.881,1.239,0.856,1.548,1.075,0.479,0.826,0.787,��쐼,6.3,��
2018/06/22,17:10,0.881,1.242,0.855,1.549,1.076,0.478,0.827,0.788,��쐼,6.6,��
2018/06/22,17:20,0.881,1.241,0.854,1.549,1.075,0.478,0.828,0.786,��쐼,6.4,��
2018/06/22,17:30,0.879,1.241,0.855,1.548,1.078,0.477,0.826,0.786,��쓌,2.0,��
2018/06/22,17:40,0.878,1.241,0.854,1.547,1.076,0.476,0.827,0.786,��쓌,4.5,��
2018/06/22,17:50,0.879,1.239,0.854,1.547,1.076,0.476,0.825,0.787,��쓌,7.2,��
2018/06/22,18:00,0.880,1.239,0.854,1.545,1.075,0.478,0.826,0.788,��,7.0,��
2018/06/22,18:10,0.880,1.238,0.855,1.546,1.078,0.476,0.826,0.788,��,6.4,��
2018/06/22,18:20,0.880,1.241,0.855,1.547,1.077,0.478,0.826,0.790,��,6.2,��
2018/06/22,18:30,0.880,1.239,0.855,1.550,1.076,0.477,0.828,0.790,��쐼,5.9,��
2018/06/22,18:40,0.881,1.242,0.854,1.549,1.072,0.481,0.827,0.790,��쐼,4.4,��
2018/06/22,18:50,0.881,1.242,0.857,1.548,1.076,0.479,0.825,0.789,�쐼,4.4,��
2018/06/22,19:00,0.881,1.243,0.856,1.548,1.078,0.480,0.826,0.789,��쐼,3.9,��
2018/06/22,19:10,0.878,1.242,0.857,1.550,1.080,0.480,0.826,0.790,��,3.6,��
2018/06/22,19:20,0.880,1.245,0.858,1.549,1.079,0.480,0.826,0.790,��,3.9,��
2018/06/22,19:30,0.880,1.243,0.858,1.551,1.080,0.480,0.825,0.790,��쐼,4.1,��
2018/06/22,19:40,0.879,1.241,0.857,1.547,1.079,0.480,0.827,0.789,��쐼,4.1,��
2018/06/22,19:50,0.882,1.243,0.858,1.549,1.080,0.480,0.827,0.789,���쐼,3.3,��
2018/06/22,20:00,0.884,1.245,0.857,1.550,1.079,0.481,0.827,0.789,��,3.1,��
2018/06/22,20:10,0.880,1.240,0.858,1.553,1.079,0.480,0.826,0.788,���k��,2.8,��
2018/06/22,20:20,0.881,1.243,0.858,1.549,1.078,0.481,0.828,0.789,��,1.5,��
2018/06/22,20:30,0.881,1.240,0.858,1.551,1.079,0.480,0.826,0.789,���쐼,4.0,��
2018/06/22,20:40,0.880,1.240,0.856,1.551,1.078,0.479,0.828,0.790,���쐼,3.6,��
2018/06/22,20:50,0.881,1.241,0.858,1.551,1.078,0.479,0.828,0.789,�쐼,3.1,��
2018/06/22,21:00,0.882,1.241,0.857,1.548,1.077,0.480,0.827,0.789,�쐼,2.8,��
2018/06/22,21:10,0.879,1.241,0.855,1.552,1.080,0.478,0.829,0.788,���쐼,2.9,��
2018/06/22,21:20,0.883,1.242,0.858,1.551,1.078,0.481,0.829,0.789,�쐼,3.4,��
2018/06/22,21:30,0.879,1.243,0.857,1.549,1.078,0.479,0.825,0.789,���쐼,5.1,��
2018/06/22,21:40,0.882,1.239,0.856,1.551,1.079,0.478,0.827,0.790,���쐼,5.0,��
2018/06/22,21:50,0.881,1.239,0.857,1.550,1.078,0.477,0.825,0.790,���쐼,4.6,��
2018/06/22,22:00,0.879,1.242,0.856,1.551,1.079,0.478,0.826,0.790,���k��,1.7,��
2018/06/22,22:10,0.880,1.239,0.855,1.552,1.078,0.477,0.825,0.788,���쐼,2.0,��
2018/06/22,22:20,0.881,1.238,0.856,1.548,1.075,0.479,0.826,0.789,���쐼,4.1,��
2018/06/22,22:30,0.880,1.241,0.856,1.547,1.077,0.478,0.825,0.788,���쐼,5.5,��
2018/06/22,22:40,0.878,1.240,0.858,1.552,1.076,0.478,0.827,0.788,��,3.9,��
2018/06/22,22:50,0.879,1.241,0.854,1.550,1.077,0.477,0.828,0.789,���쐼,3.0,��
2018/06/22,23:00,0.880,1.238,0.855,1.550,1.078,0.478,0.829,0.790,���쐼,4.2,��
2018/06/22,23:10,0.880,1.237,0.854,1.551,1.079,0.479,0.827,0.789,���쐼,6.1,��
2018/06/22,23:20,0.879,1.239,0.857,1.551,1.080,0.478,0.827,0.788,���쐼,5.4,��
2018/06/22,23:30,0.878,1.238,0.857,1.550,1.078,0.480,0.827,0.787,���쐼,5.1,��
2018/06/22,23:40,0.879,1.236,0.856,1.549,1.078,0.477,0.827,0.789,���쐼,4.8,��
2018/06/22,23:50,0.879,1.238,0.854,1.553,1.079,0.479,0.827,0.788,���쐼,3.3,��
